Flag for Netherlands Weather past 2 weeks in 's-Hertogenbosch, Netherlands

Now
41 °F

Partly sunny.


Feels Like: 36 °F
Forecast: 32 / 48 °F
Wind: 8 mph from Northwest

Location: Volkel

Current Time: Feb 27, 2015 at 8:43:25 AM

Latest Report: Feb 27, 2015 at 7:55 AM


Visibility: N/A

Pressure: 29.92 "Hg

Humidity: 87%

Dew point: 37 °F

Location of 's-HertogenboschLocation

Historic Weather in 's-Hertogenbosch — Graph

°F

's-Hertogenbosch temperature yesterday

Maximum temperature yesterday: 50 °F (at 1:55 PM)
Minimum temperature yesterday: 39 °F (at 1:55 AM)
Average temperature yesterday: 44 °F

Past Weeks' High & Low Weather Summary

 TemperatureHumidityPressure
High52 °F (Feb 14, 3:25 PM)100% (Feb 12, 7:25 AM)30.74 "Hg (Feb 12, 7:25 AM)
Low23 °F (Feb 16, 4:55 AM)62% (Feb 13, 1:25 PM)29.33 "Hg (Feb 23, 4:55 AM)
Average38 °F89%29.94 "Hg
* Reported Feb 12 7:25 AM — Feb 27 7:25 AM, 's-Hertogenbosch, Weather by CustomWeather, © 2015

Note: Actual official high and low records may vary slightly from our data, if they occured in-between our weather recording intervals... More about our weather records

Advertising

's-Hertogenbosch weather history for previous 24 hours

 ConditionsComfort  
Time TempWeatherWind HumidityBarometerVisibility
7:25 AM
Fri, Feb 27
41 °FPassing clouds.9 mph87%29.92 "HgN/A
6:55 AM41 °FMostly cloudy.9 mph87%29.89 "HgN/A
6:25 AM41 °FPartly cloudy.10 mph87%29.89 "HgN/A
5:55 AM41 °FPartly cloudy.9 mph93%29.86 "HgN/A
5:25 AM41 °FOvercast.8 mph87%29.86 "HgN/A
4:25 AM41 °FPassing clouds.6 mph93%29.83 "HgN/A
3:55 AM41 °FPartly cloudy.7 mph93%29.83 "HgN/A
3:25 AM41 °FPassing clouds.6 mph93%29.83 "HgN/A
2:55 AM43 °FOvercast.13 mph87%29.80 "HgN/A
2:25 AM43 °FDrizzle. Overcast.13 mph87%29.80 "HgN/A
1:55 AM43 °FLight rain. Mostly cloudy.14 mph93%29.80 "HgN/A
1:25 AM43 °FDrizzle. Overcast.14 mph93%29.77 "HgN/A
12:55 AM45 °FLight rain. Mostly cloudy.16 mph87%29.77 "HgN/A
12:25 AM46 °FLight rain. Low clouds.3 mph100%29.77 "Hg2 mi
12:04 AM46 °FDrizzle. Overcast.5 mph100%29.77 "Hg2 mi
11:25 PM
Thu, Feb 26
46 °FDrizzle. Mostly cloudy.8 mph93%29.77 "Hg2 mi
10:55 PM46 °FLight rain. Mostly cloudy.6 mph93%29.77 "Hg4 mi
9:55 PM46 °FDrizzle. Mostly cloudy.9 mph93%29.77 "Hg3 mi
9:25 PM46 °FDrizzle. Mostly cloudy.9 mph93%29.77 "Hg3 mi
8:55 PM46 °FPassing clouds.12 mph93%29.80 "Hg4 mi
8:25 PM45 °FSprinkles. Overcast.12 mph100%29.80 "Hg2 mi
7:55 PM45 °FDrizzle. Mostly cloudy.12 mph100%29.80 "Hg2 mi
7:25 PM45 °FDrizzle. Overcast.12 mph100%29.83 "Hg2 mi
6:55 PM46 °FFog.10 mph93%29.83 "Hg3 mi
6:25 PM46 °FPartly cloudy.13 mph93%29.83 "HgN/A
6:04 PM46 °FMostly cloudy.13 mph93%29.83 "HgN/A
6:00 PM46 °FBroken clouds.13 mph93%29.83 "HgN/A
5:55 PM46 °FPartly sunny.13 mph93%29.83 "HgN/A
5:25 PM46 °FFog.12 mph93%29.86 "Hg4 mi
5:03 PM46 °FSprinkles. More clouds than sun.12 mph93%29.86 "Hg3 mi
4:58 PM46 °FLight rain. Low clouds.12 mph93%29.86 "Hg3 mi
4:25 PM48 °FDrizzle. More clouds than sun.15 mph87%29.86 "Hg3 mi
3:55 PM48 °FOvercast.16 mph82%29.89 "HgN/A
3:25 PM50 °FOvercast.14 mph76%29.89 "HgN/A
2:59 PM50 °FOvercast.15 mph71%29.89 "HgN/A
2:55 PM50 °FMore clouds than sun.15 mph76%29.89 "HgN/A
2:25 PM50 °FOvercast.15 mph76%29.92 "HgN/A
1:55 PM50 °FMore clouds than sun.13 mph76%29.92 "HgN/A
1:25 PM48 °FOvercast.12 mph82%29.95 "HgN/A
12:55 PM48 °FMostly cloudy.12 mph82%29.98 "HgN/A
12:25 PM46 °FPartly sunny.13 mph87%29.98 "HgN/A
11:55 AM45 °FFog.13 mph93%30.01 "Hg4 mi
11:25 AM43 °FFog.12 mph93%30.01 "Hg3 mi
10:55 AM43 °FFog.9 mph93%30.01 "Hg2 mi
10:25 AM43 °FFog.10 mph93%30.04 "Hg2 mi
9:55 AM41 °FFog.12 mph100%30.04 "Hg3 mi
9:25 AM41 °FFog.9 mph100%30.04 "Hg2 mi
8:55 AM39 °FFog.12 mph100%30.04 "Hg1 mi
8:25 AM39 °FFog.12 mph100%30.07 "Hg1 mi
Weather by CustomWeather, © 2015

See weather overviewHow to use our weather pages